SCP
0 0 0 0 0 0 0 0 0 0 0 0 0 0 0 0 0 0 0 0 0 0 0 0 0 0 0 0 0 0 0 0 0 0 0 0 0 0
0 0 0 0 0 0 0 0 0 0 0 0 0 0 0 0 0 0 0 0 0 0 0 0 0 0 0 0 0 0 0 0 0 0 0 0 1 1
0 0 0 0 0 0 0 0 0 0 0 0 0 0 0 0 0 0 0 0 0 0 0 0 0 0 0 0 0 0 0 0 0 0 0 0 1 1
0 0 0 0 0 0 0 0 0 0 0 0 0 0 0 0 0 0 0 0 0 0 0 0 0 0 0 0 0 0 0 0 0 0 0 0 0 0
0 0 0 0 0 0 0 0 0 0 0 0 0 0 0 0 0 0 0 0 0 0 0 0 0 0 0 0 0 0 0 0 0 0 0 0 0 0
0 0 0 0 0 0 0 0 0 0 0 0 0 0 0 0 0 0 0 0 0 0 0 0 0 0 0 0 0 0 0 0 0 0 0 0 0 0
0 0 0 0 0 0 0 0 0 0 0 0 0 0 0 0 0 0 0 0 0 0 0 0 0 0 0 0 0 0 0 0 0 0 0 0 0 0
0 0 0 0 0 0 0 0 0 0 0 0 0 0 0 0 0 0 0 0 0 0 0 0 0 0 0 0 0 0 0 0 0 0 0 0 0 0
0 0 0 0 0 0 0 0 0 0 0 0 0 0 0 0 0 0 0 0 0 0 0 0 0 0 0 0 0 0 0 0 0 0 0 0 0 0
0 0 0 0 0 0 0 0 0 0 0 0 0 0 0 0 0 0 0 0 0 0 0 0 0 0 0 0 0 0 0 0 0 0 0 0 0 0
0 0 0 0 0 0 0 0 0 0 0 0 0 0 0 0 0 0 0 0 0 0 0 0 0 0 0 0 0 0 0 0 0 0 0 0 0 0
0 0 0 0 0 0 0 0 0 0 0 0 0 0 0 0 0 0 0 0 0 0 0 0 0 0 0 0 0 0 0 0 0 0 0 0 0 0
0 0 0 0 0 0 0 0 0 0 0 0 0 0 0 0 0 0 0 0 0 0 0 0 0 0 0 0 0 0 0 0 0 0 0 0 0 0
0 0 0 0 0 0 0 0 0 0 0 0 0 0 0 0 0 0 0 0 0 0 0 0 0 0 0 0 0 0 0 0 0 0 0 0 0 0
0 0 0 0 0 0 0 0 0 0 0 0 0 0 0 0 0 0 0 0 0 0 0 0 0 0 0 0 0 0 0 0 0 0 0 0 0 0
0 0 0 0 0 0 0 0 0 0 0 0 0 0 0 0 0 0 0 0 0 0 0 0 0 0 0 0 0 0 0 0 0 0 0 0 0 0
0 0 0 0 0 0 0 0 0 0 0 0 0 0 0 0 0 0 0 0 0 0 0 0 0 0 0 0 0 0 0 0 0 0 0 0 0 0
0 0 0 0 0 0 0 0 0 0 0 0 0 0 0 0 0 0 0 0 0 0 0 0 0 0 0 0 0 0 0 0 0 0 0 0 0 0
0 0 0 0 0 0 0 0 0 0 0 0 0 0 0 0 0 0 0 0 0 0 0 0 0 0 0 0 0 0 0 0 0 0 0 0 0 0
0 0 0 0 0 0 0 0 0 0 0 0 0 0 0 0 0 0 0 0 0 0 0 0 0 0 0 0 0 0 0 0 0 0 0 0 0 0
0 0 0 0 0 0 0 0 0 0 0 0 0 0 0 0 0 0 0 0 0 0 0 0 0 0 0 0 0 0 0 0 0 0 0 0 0 0
0 0 0 0 0 0 0 0 0 0 0 0 0 0 0 0 0 0 0 0 0 0 0 0 0 0 0 0 0 0 0 0 0 0 0 0 0 0
0 0 0 0 0 0 0 0 0 0 0 0 0 0 0 0 0 0 0 0 0 0 0 0 0 0 0 0 0 0 0 0 0 0 0 0 0 0
Wind_Speed
7 8 7 6 6 6 6 7 11 19 18 12 8 8 6 7 15 11 10 23 33 34 34 34 34 35 35 35 35 35 35 35 34 34 33 32 32 31
7 8 8 7 6 6 6 6 6 11 19 15 12 10 11 14 21 14 11 30 31 32 33 33 34 35 36 36 36 36 35 35 34 34 34 33 32 31
9 11 11 11 8 7 6 6 6 7 15 16 13 12 13 14 14 10 12 12 13 27 32 34 35 35 35 35 35 35 34 34 34 33 32 32 31 30
12 12 13 12 11 9 7 7 7 8 12 19 16 13 15 15 15 14 15 14 10 23 31 34 35 35 35 35 35 35 35 34 33 31 30 30 30 30
12 13 14 14 13 9 8 8 8 11 10 15 17 14 13 13 15 16 14 10 13 19 26 29 31 34 35 35 35 34 33 32 31 29 28 28 29 30
11 13 14 14 13 11 11 10 10 12 12 14 15 14 14 14 12 12 13 8 10 14 19 23 27 32 33 33 33 33 32 31 30 29 28 28 28 30
12 13 14 19 23 19 16 12 13 12 13 14 15 15 15 13 12 11 15 14 11 10 12 13 13 13 15 23 28 30 32 31 30 29 28 28 28 29
13 13 14 16 19 26 28 28 25 19 17 16 16 17 18 16 14 13 15 17 18 7 9 14 12 13 13 11 22 30 30 29 29 29 29 29 29 29
12 13 14 15 21 14 21 25 21 26 27 20 18 18 19 17 17 18 17 18 18 13 13 16 11 12 11 14 27 30 30 30 30 30 30 30 30 29
11 13 14 14 16 21 17 16 15 15 20 17 14 16 17 16 17 18 18 18 15 11 11 15 11 12 13 12 23 30 31 30 28 27 28 29 28 27
11 13 16 16 24 30 21 18 18 14 20 27 29 27 31 31 25 15 14 15 16 11 7 11 13 13 12 12 17 26 25 25 28 29 29 28 25 23
11 12 19 23 28 31 21 18 17 15 15 16 17 19 17 18 25 16 13 15 16 14 8 9 13 12 11 8 8 7 12 21 27 28 28 26 25 14
13 12 12 27 31 32 28 14 20 23 14 13 13 12 11 10 11 11 11 13 15 15 12 10 12 12 11 11 7 7 8 10 12 16 21 24 24 18
14 12 15 30 32 31 22 23 30 24 11 12 12 12 11 11 11 13 14 14 14 17 17 15 12 11 11 11 9 6 8 10 11 12 10 12 12 15
14 24 29 30 27 17 21 28 23 12 12 13 13 12 10 11 12 12 13 13 14 13 12 12 10 9 7 8 9 10 11 9 9 9 5 2 2 3
13 18 23 23 20 21 19 15 10 11 13 12 13 12 11 10 11 11 12 12 11 9 6 6 7 8 6 6 8 11 9 8 9 8 4 6 8 8
18 9 8 10 10 11 11 10 11 12 12 11 12 12 12 12 11 10 10 11 10 9 8 6 6 7 7 5 6 8 9 7 5 5 6 10 10 10
18 10 11 11 12 13 13 13 13 12 12 12 12 12 12 12 12 11 10 10 10 9 8 7 8 7 4 2 6 8 7 5 5 7 8 10 11 10
12 10 11 12 12 12 12 13 13 13 12 11 12 12 12 11 11 11 10 9 9 9 8 6 5 6 7 7 9 13 8 5 7 9 10 10 10 10
9 10 11 12 12 12 12 12 12 12 11 11 12 11 11 11 11 11 10 10 10 9 7 6 5 5 3 4 5 8 15 9 7 10 9 10 12 17
11 11 11 12 12 12 12 12 12 12 13 12 11 12 11 11 10 10 9 13 10 7 7 7 6 10 4 3 4 8 12 19 17 9 7 8 10 10
11 12 12 12 12 12 12 11 12 12 12 11 11 11 10 10 10 11 9 9 7 7 6 5 5 5 5 6 8 9 9 11 17 23 20 14 6 6
11 12 12 12 11 11 11 12 13 12 12 12 11 11 10 9 9 8 8 7 7 6 4 4 4 4 5 5 6 8 11 11 9 10 11 19 24 24
Wind_Direction
297 293 289 284 282 282 286 293 299 304 304 305 300 294 292 294 297 299 298 303 301 298 298 299 298 297 296 295 293 291 289 288 286 284 282 280 278 273
300 297 295 294 289 286 284 282 284 294 298 302 304 304 304 303 301 298 292 297 297 297 297 297 297 295 294 292 290 288 287 285 283 281 279 277 275 274
311 308 304 302 298 294 290 287 284 287 294 299 299 300 299 299 297 286 286 283 286 295 299 299 296 293 292 291 291 290 289 287 283 280 277 275 275 275
315 309 307 308 303 298 292 292 293 292 291 295 297 297 295 294 293 289 294 291 291 298 299 298 297 297 296 295 294 292 291 289 285 282 280 279 277 276
310 309 308 305 301 297 298 295 292 293 288 291 294 295 293 292 292 291 290 287 294 298 300 298 297 296 295 293 293 292 291 291 290 286 283 282 279 276
307 305 303 301 300 301 298 290 292 294 293 292 294 297 296 293 292 298 298 288 292 298 294 292 292 294 293 293 294 294 293 291 289 286 284 282 278 275
305 301 300 302 304 305 304 304 303 300 301 300 299 301 301 304 303 301 301 301 290 288 287 287 288 285 286 288 289 288 287 287 287 286 285 283 279 275
306 304 301 301 304 309 310 307 307 308 308 304 303 302 303 303 302 301 301 300 297 286 280 289 287 284 283 279 283 287 290 292 291 289 287 283 278 273
302 304 307 308 312 303 301 307 310 307 306 303 300 300 301 302 301 299 296 294 295 301 297 291 287 287 289 292 296 296 295 293 291 290 287 282 275 269
299 302 304 305 305 306 306 310 305 302 301 301 295 296 299 299 296 299 300 298 292 285 284 290 294 291 293 290 293 291 290 290 290 289 288 283 272 262
301 305 306 304 305 312 315 309 307 304 308 307 307 306 307 308 308 305 302 299 299 297 280 286 293 293 288 284 283 285 288 293 293 290 285 279 272 260
306 304 307 310 311 315 314 311 311 310 310 311 309 306 303 299 303 301 300 299 299 298 284 281 290 295 291 265 259 275 285 288 289 289 284 277 270 258
314 313 310 313 315 316 319 316 311 316 319 314 308 304 301 299 298 295 292 291 292 291 291 289 289 288 285 290 280 270 274 283 288 285 280 271 260 243
314 311 309 314 318 323 325 318 320 326 318 310 307 308 309 307 303 299 294 288 281 283 286 287 286 289 292 296 302 295 291 287 285 282 275 266 246 223
310 311 315 320 325 326 320 322 326 320 311 310 311 310 305 299 301 302 301 296 289 284 285 289 294 297 292 296 299 301 308 302 299 301 307 356 63 119
310 311 320 323 324 322 321 320 315 310 315 312 310 307 305 304 307 309 310 311 308 305 296 296 305 302 293 287 294 301 304 301 309 317 2 48 56 62
322 322 319 321 320 318 317 316 316 318 317 314 312 312 313 313 312 312 310 314 317 319 323 319 314 298 267 269 307 311 311 311 319 349 40 60 54 54
333 327 322 320 319 320 320 319 319 318 318 316 313 312 313 313 313 314 315 318 323 326 329 335 339 337 333 275 327 327 330 343 18 36 50 67 64 57
330 319 318 319 319 318 317 316 316 316 315 314 313 312 311 311 312 314 318 323 325 327 331 338 347 353 1 354 337 354 3 20 54 60 58 63 67 66
320 319 318 318 317 316 316 315 315 315 315 314 312 311 310 311 312 314 318 324 327 328 330 338 346 347 339 317 321 0 28 33 59 74 72 72 75 79
322 319 317 316 315 314 314 314 314 313 313 312 311 310 310 311 313 316 320 327 331 328 336 343 337 342 334 336 26 41 41 47 54 58 57 78 85 84
320 318 316 314 314 313 313 314 314 313 312 311 310 310 310 312 316 319 323 327 328 328 330 335 343 2 23 43 52 49 48 48 50 52 51 54 72 83
318 316 314 313 312 313 313 312 312 310 310 309 310 310 312 316 318 318 320 323 326 330 340 355 6 23 35 43 57 60 59 57 57 58 61 77 84 88